FW4298 Weather Reports


Display with metric or nautical units.
time (UTC)temp
F
wind
direction
speed
MPH
gust
MPH
rain 1hr
in
rain 24hr
in
rain mn
in
humidity
%
barometer
mb
20260903001030 93 78 2.0 4.0 0.00 0.00 0.00 57 1013.4
20260903000530 93 71 2.0 4.0 0.00 0.00 0.00 57 1013.4
20260903000030 93 79 1.0 3.0 0.00 0.00 0.00 57 1013.5
20260902235529 94 80 0.0 3.0 0.00 0.00 0.00 57 1013.5
20260902235030 94 78 0.0 2.0 0.00 0.00 0.00 56 1013.4
20260902235015 94 78 0.0 2.0 0.00 0.00 0.00 55 1013.5
20260902234257 94 79 0.0 2.0 0.00 0.00 0.00 54 1013.4
20260902234015 95 79 1.0 4.0 0.00 0.00 0.00 53 1013.4
20260902233030 95 79 2.0 4.0 0.00 0.00 0.00 53 1013.5
20260902232748 95 63 3.0 9.0 0.00 0.00 0.00 52 1013.5
20260902232028 96 143 3.0 9.0 0.00 0.00 0.00 51 1013.5
20260902231752 97 146 3.0 8.0 0.00 0.00 0.00 49 1013.5
20260902231019 98 337 2.0 5.0 0.00 0.00 0.00 49 1013.4
20260902230713 99 9 2.0 4.0 0.00 0.00 0.00 48 1013.4
20260902230705 98 15 2.0 4.0 0.00 0.00 0.00 48 1013.4
20260902225505 100 0 2.0 5.0 0.00 0.00 0.00 46 1013.3
20260902225450 101 0 3.0 5.0 0.00 0.00 0.00 45 1013.2
20260902224503 101 320 2.0 5.0 0.00 0.00 0.00 45 1013.2
20260902224001 101 342 2.0 6.0 0.00 0.00 0.00 45 1013.2
20260902223502 101 94 2.0 6.0 0.00 0.00 0.00 45 1013.2
20260902223003 101 320 3.0 7.0 0.00 0.00 0.00 45 1013.4
20260902222503 100 291 3.0 7.0 0.00 0.00 0.00 46 1013.4
20260902222224 100 318 2.0 5.0 0.00 0.00 0.00 47 1013.4
20260902221503 99 57 3.0 5.0 0.00 0.00 0.00 46 1013.4
20260902221002 99 29 2.0 5.0 0.00 0.00 0.00 47 1013.4
20260902220503 99 346 3.0 5.0 0.00 0.00 0.00 46 1013.5
20260902220224 100 25 2.0 5.0 0.00 0.00 0.00 47 1013.5
20260902215504 100 344 2.0 5.0 0.00 0.00 0.00 47 1013.6
20260902215002 99 123 2.0 5.0 0.00 0.00 0.00 47 1013.6
20260902214502 99 55 2.0 5.0 0.00 0.00 0.00 47 1013.7
20260902214225 99 24 1.0 6.0 0.00 0.00 0.00 48 1013.7
20260902213503 98 92 0.0 6.0 0.00 0.00 0.00 48 1013.8
20260902212958 98 286 1.0 7.0 0.00 0.00 0.00 49 1013.7
20260902212451 98 288 2.0 7.0 0.00 0.00 0.00 49 1013.8
20260902211945 98 287 3.0 7.0 0.00 0.00 0.00 51 1013.7
20260902211439 97 299 1.0 6.0 0.00 0.00 0.00 50 1013.7
20260902210939 97 302 1.0 6.0 0.00 0.00 0.00 49 1013.6
20260902210439 97 300 2.0 7.0 0.00 0.00 0.00 49 1013.7
20260902205940 98 306 3.0 7.0 0.00 0.00 0.00 49 1013.8
20260902205440 98 301 2.0 5.0 0.00 0.00 0.00 50 1013.9
20260902204940 98 342 3.0 7.0 0.00 0.00 0.00 50 1013.9
20260902204438 98 13 3.0 7.0 0.00 0.00 0.00 50 1014.1
20260902203936 97 19 2.0 6.0 0.00 0.00 0.00 49 1014.2
20260902203435 98 14 1.0 6.0 0.00 0.00 0.00 50 1014.2
20260902202935 97 40 2.0 8.0 0.00 0.00 0.00 51 1014.3
20260902202434 98 33 3.0 8.0 0.00 0.00 0.00 48 1014.3
20260902201932 98 19 2.0 6.0 0.00 0.00 0.00 49 1014.4
20260902201431 98 33 4.0 11.0 0.00 0.00 0.00 49 1014.6
20260902201156 100 33 4.0 11.0 0.00 0.00 0.00 48 1014.5
20260902200431 100 330 3.0 9.0 0.00 0.00 0.00 47 1014.6
20260902195931 101 338 2.0 5.0 0.00 0.00 0.00 46 1014.7
20260902195431 101 306 2.0 6.0 0.00 0.00 0.00 45 1014.8
20260902194930 101 346 3.0 6.0 0.00 0.00 0.00 46 1014.8
20260902194427 101 90 3.0 9.0 0.00 0.00 0.00 45 1014.9
20260902193921 100 349 2.0 9.0 0.00 0.00 0.00 46 1015.0
20260902193415 100 120 1.0 5.0 0.00 0.00 0.00 47 1015.0
20260902193130 98 281 2.0 5.0 0.00 0.00 0.00 48 1015.1
20260902192409 98 163 3.0 7.0 0.00 0.00 0.00 48 1015.2
20260902192129 98 136 3.0 7.0 0.00 0.00 0.00 49 1015.3
20260902191407 98 136 2.0 6.0 0.00 0.00 0.00 50 1015.3
20260902191138 98 340 2.0 6.0 0.00 0.00 0.00 47 1015.4
20260902190406 98 49 2.0 8.0 0.00 0.00 0.00 48 1015.5
20260902190128 98 306 3.0 8.0 0.00 0.00 0.00 48 1015.5
20260902185404 97 302 3.0 8.0 0.00 0.00 0.00 48 1015.7
20260902184903 98 63 2.0 8.0 0.00 0.00 0.00 47 1015.7
20260902184403 98 244 3.0 9.0 0.00 0.00 0.00 47 1015.8
20260902183903 98 321 3.0 9.0 0.00 0.00 0.00 48 1015.8
20260902183402 97 5 2.0 5.0 0.00 0.00 0.00 50 1015.9
20260902182902 97 19 2.0 9.0 0.00 0.00 0.00 48 1016.0
20260902182402 97 339 2.0 9.0 0.00 0.00 0.00 50 1016.0
20260902182125 97 98 3.0 7.0 0.00 0.00 0.00 49 1016.1
20260902181634 98 329 3.0 7.0 0.00 0.00 0.00 48 1016.3
20260902181114 97 275 4.0 10.0 0.00 0.00 0.00 50 1016.6
20260902181104 97 13 4.0 10.0 0.00 0.00 0.00 50 1016.5
20260902175859 97 321 2.0 5.0 0.00 0.00 0.00 51 1016.7
20260902175353 97 167 2.0 5.0 0.00 0.00 0.00 53 1016.8
20260902174848 97 194 2.0 5.0 0.00 0.00 0.00 53 1016.9
20260902174341 97 355 1.0 3.0 0.00 0.00 0.00 51 1017.0
20260902173835 96 314 2.0 8.0 0.00 0.00 0.00 51 1017.1
20260902173333 96 329 2.0 8.0 0.00 0.00 0.00 52 1017.1
20260902172834 96 261 2.0 7.0 0.00 0.00 0.00 53 1017.2
20260902172333 95 263 2.0 6.0 0.00 0.00 0.00 53 1017.3
20260902171833 95 223 3.0 6.0 0.00 0.00 0.00 54 1017.3
20260902171334 95 237 2.0 5.0 0.00 0.00 0.00 54 1017.3
20260902170833 95 203 1.0 8.0 0.00 0.00 0.00 56 1017.4
20260902170601 94 189 2.0 8.0 0.00 0.00 0.00 57 1017.5
20260902165831 93 107 2.0 8.0 0.00 0.00 0.00 56 1017.5
20260902165331 93 261 3.0 8.0 0.00 0.00 0.00 58 1017.6
20260902164830 93 248 3.0 7.0 0.00 0.00 0.00 56 1017.7
20260902164332 93 240 3.0 8.0 0.00 0.00 0.00 58 1017.7
20260902163831 93 223 2.0 8.0 0.00 0.00 0.00 57 1017.7
20260902163332 93 212 2.0 7.0 0.00 0.00 0.00 57 1017.7
20260902163052 92 242 3.0 8.0 0.00 0.00 0.00 58 1017.8
20260902162331 91 286 4.0 8.0 0.00 0.00 0.00 58 1017.8
20260902161831 91 201 4.0 9.0 0.00 0.00 0.00 59 1017.9
20260902161330 91 254 3.0 10.0 0.00 0.00 0.00 57 1017.8
20260902160831 92 227 2.0 10.0 0.00 0.00 0.00 59 1017.8
20260902160558 91 196 3.0 7.0 0.00 0.00 0.00 60 1017.8
20260902155831 91 199 4.0 8.0 0.00 0.00 0.00 58 1017.9
20260902155332 91 288 5.0 8.0 0.00 0.00 0.00 59 1017.9
20260902154830 91 246 4.0 9.0 0.00 0.00 0.00 59 1017.9
20260902154331 90 248 3.0 9.0 0.00 0.00 0.00 60 1017.8
20260902153830 90 211 2.0 8.0 0.00 0.00 0.00 62 1018.0
20260902153331 89 243 2.0 8.0 0.00 0.00 0.00 62 1017.9
20260902152830 89 0 2.0 8.0 0.00 0.00 0.00 61 1018.0
20260902152331 89 200 2.0 6.0 0.00 0.00 0.00 63 1017.8
20260902152052 89 260 3.0 7.0 0.00 0.00 0.00 65 1017.9
20260902151330 89 225 3.0 7.0 0.00 0.00 0.00 66 1017.9
20260902150824 88 252 3.0 7.0 0.00 0.00 0.00 67 1017.9
20260902150805 88 273 2.0 8.0 0.00 0.00 0.00 69 1017.7
20260902145819 87 271 2.0 8.0 0.00 0.00 0.00 68 1017.9
20260902145318 87 230 3.0 8.0 0.00 0.00 0.00 70 1017.8
20260902144819 86 277 2.0 8.0 0.00 0.00 0.00 70 1017.8
20260902144547 86 244 2.0 7.0 0.00 0.00 0.00 71 1017.7
20260902144259 85 269 2.0 7.0 0.00 0.00 0.00 72 1017.8
20260902143315 85 255 2.0 7.0 0.00 0.00 0.00 74 1017.9
20260902142813 84 221 2.0 7.0 0.00 0.00 0.00 75 1017.9
20260902142311 84 240 2.0 7.0 0.00 0.00 0.00 75 1017.9
20260902141810 83 230 2.0 4.0 0.00 0.00 0.00 76 1017.8
20260902141307 83 225 2.0 6.0 0.00 0.00 0.00 76 1017.7
20260902140806 83 221 3.0 6.0 0.00 0.00 0.00 76 1017.8
20260902140307 83 199 2.0 5.0 0.00 0.00 0.00 77 1017.8
20260902140016 82 241 1.0 4.0 0.00 0.00 0.00 77 1017.7
20260902140004 82 215 1.0 4.0 0.00 0.00 0.00 76 1017.8
20260902134805 82 98 0.0 2.0 0.00 0.00 0.00 79 1017.8
20260902134303 81 93 0.0 2.0 0.00 0.00 0.00 81 1017.7
20260902134246 80 93 0.0 0.0 0.00 0.00 0.00 82 1017.7
20260902133303 80 93 0.0 0.0 0.00 0.00 0.00 84 1017.8
20260902132804 79 93 0.0 0.0 0.00 0.00 0.00 84 1017.7
20260902132745 78 93 0.0 0.0 0.00 0.00 0.00 89 1017.6
20260902131803 77 93 0.0 0.0 0.00 0.00 0.00 89 1017.6
20260902131529 76 93 0.0 0.0 0.00 0.00 0.00 90 1017.6
20260902130802 76 93 0.0 0.0 0.00 0.00 0.00 91 1017.4
20260902130302 75 93 0.0 0.0 0.00 0.00 0.00 92 1017.4
20260902125803 74 93 0.0 0.0 0.00 0.00 0.00 94 1017.4
20260902125305 74 93 0.0 0.0 0.00 0.00 0.00 94 1017.4
20260902124802 73 148 0.0 0.0 0.00 0.00 0.00 95 1017.4
20260902124303 73 148 0.0 0.0 0.00 0.00 0.00 94 1017.3
20260902123802 73 148 0.0 0.0 0.00 0.00 0.00 94 1017.1
20260902123303 73 148 0.0 0.0 0.00 0.00 0.00 94 1017.1
20260902122802 73 148 0.0 0.0 0.00 0.00 0.00 94 1017.0
20260902122305 73 148 0.0 0.0 0.00 0.00 0.00 94 1017.0
20260902121803 73 148 0.0 0.0 0.00 0.00 0.00 94 1017.0
20260902121302 73 148 0.0 0.0 0.00 0.00 0.00 94 1017.0
20260902120802 73 148 0.0 0.0 0.00 0.00 0.00 93 1017.0
20260902120302 73 148 0.0 0.0 0.00 0.00 0.00 93 1017.0
20260902115800 73 148 0.0 0.0 0.00 0.00 0.00 93 1017.0
20260902115301 73 148 0.0 0.0 0.00 0.00 0.00 93 1016.9
20260902114801 73 148 0.0 0.0 0.00 0.00 0.00 93 1016.9
20260902114303 73 148 0.0 0.0 0.00 0.00 0.00 93 1016.8
20260902113801 73 148 0.0 0.0 0.00 0.00 0.00 93 1016.7
20260902113301 73 148 0.0 0.0 0.00 0.00 0.00 92 1016.8
20260902112801 74 148 0.0 0.0 0.00 0.00 0.00 93 1016.8
20260902112300 74 148 0.0 0.0 0.00 0.00 0.00 93 1016.9
20260902111801 74 148 0.0 0.0 0.00 0.00 0.00 93 1017.0
20260902111744 74 148 0.0 0.0 0.00 0.00 0.00 92 1016.9
20260902110801 74 148 0.0 0.0 0.00 0.00 0.00 92 1016.9
20260902110301 74 148 0.0 0.0 0.00 0.00 0.00 92 1016.8
20260902105802 74 148 0.0 0.0 0.00 0.00 0.00 92 1016.8
20260902105526 74 148 0.0 0.0 0.00 0.00 0.00 92 1016.7
20260902104801 74 148 0.0 0.0 0.00 0.00 0.00 92 1016.8
20260902104308 74 148 0.0 0.0 0.00 0.00 0.00 93 1016.7
20260902103805 74 148 0.0 0.0 0.00 0.00 0.00 93 1016.8
20260902103259 74 148 0.0 0.0 0.00 0.00 0.00 93 1016.8
20260902103017 74 148 0.0 0.0 0.00 0.00 0.00 92 1016.8
20260902102258 74 148 0.0 0.0 0.00 0.00 0.00 92 1016.9
20260902101757 74 148 0.0 0.0 0.00 0.00 0.00 92 1016.9
20260902101255 75 148 0.0 0.0 0.00 0.00 0.00 91 1016.9
20260902100753 75 148 0.0 0.0 0.00 0.00 0.00 91 1016.9
20260902100512 75 148 0.0 0.0 0.00 0.00 0.00 91 1016.9
20260902095753 75 148 0.0 0.0 0.00 0.00 0.00 91 1017.0
20260902095253 75 148 0.0 0.0 0.00 0.00 0.00 90 1017.0
20260902094751 75 148 0.0 0.0 0.00 0.00 0.00 90 1017.0
20260902094250 75 148 0.0 0.0 0.00 0.00 0.00 90 1017.1
20260902093747 75 147 0.0 0.0 0.00 0.00 0.00 90 1017.0
20260902093246 75 147 0.0 0.0 0.00 0.00 0.00 90 1017.1
20260902093003 76 147 0.0 0.0 0.00 0.00 0.00 89 1017.1
20260902092245 76 147 0.0 0.0 0.00 0.00 0.00 89 1017.2
20260902091743 76 147 0.0 0.0 0.00 0.00 0.00 89 1017.2
20260902091243 76 147 0.0 0.0 0.00 0.00 0.00 89 1017.1
20260902090743 76 147 0.0 0.0 0.00 0.00 0.00 89 1017.1
20260902090239 76 147 0.0 0.0 0.00 0.00 0.00 88 1017.1
20260902085737 76 147 0.0 0.0 0.00 0.00 0.00 88 1017.1
20260902085237 76 147 0.0 0.0 0.00 0.00 0.00 88 1017.1
20260902084735 77 147 0.0 0.0 0.00 0.00 0.00 87 1017.1
20260902084233 77 147 0.0 0.0 0.00 0.00 0.00 87 1017.2
20260902083733 77 147 0.0 0.0 0.00 0.00 0.00 86 1017.2
20260902083230 77 147 0.0 0.0 0.00 0.00 0.00 86 1017.1
20260902082733 77 147 0.0 0.0 0.00 0.00 0.00 86 1017.0
20260902082448 78 147 0.0 0.0 0.00 0.00 0.00 85 1017.0
20260902081732 78 147 0.0 0.0 0.00 0.00 0.00 85 1017.1
20260902081231 78 147 0.0 0.0 0.00 0.00 0.00 85 1017.1
20260902080732 78 147 1.0 3.0 0.00 0.00 0.00 85 1017.1
20260902080231 78 148 1.0 3.0 0.00 0.00 0.00 85 1017.1
20260902075732 78 148 1.0 3.0 0.00 0.00 0.00 85 1017.0
20260902075231 78 148 1.0 3.0 0.00 0.00 0.00 85 1017.0
20260902074732 78 147 1.0 3.0 0.00 0.00 0.00 86 1017.0
20260902074231 78 146 1.0 2.0 0.00 0.00 0.00 86 1017.1
20260902073731 78 146 0.0 2.0 0.00 0.00 0.00 86 1017.2
20260902073231 78 145 0.0 0.0 0.00 0.00 0.00 85 1017.2
20260902072730 78 145 0.0 0.0 0.00 0.00 0.00 84 1017.3
20260902072230 78 145 0.0 0.0 0.00 0.00 0.00 84 1017.3
20260902071731 78 145 0.0 0.0 0.00 0.00 0.00 83 1017.3
20260902071231 79 145 0.0 0.0 0.00 0.00 0.00 83 1017.4
20260902070731 79 145 0.0 0.0 0.00 0.00 0.00 82 1017.4
20260902070501 79 145 0.0 0.0 0.00 0.00 0.00 82 1017.5
20260902065731 80 145 0.0 0.0 0.00 0.00 0.00 81 1017.5
20260902065454 80 145 0.0 0.0 0.00 0.00 0.00 80 1017.4
20260902064956 80 145 0.0 0.0 0.00 0.00 0.00 79 1017.4
20260902064229 81 145 0.0 0.0 0.00 0.00 0.00 79 1017.4
20260902063728 81 145 1.0 3.0 0.00 0.00 0.00 79 1017.5
20260902063223 81 145 1.0 3.0 0.00 0.00 0.00 78 1017.5
20260902062717 82 146 1.0 3.0 0.00 0.00 0.00 78 1017.5
20260902062210 82 146 1.0 3.0 0.00 0.00 0.00 77 1017.4
20260902061704 82 146 1.0 3.0 0.00 0.00 0.00 77 1017.4
20260902061205 82 146 1.0 4.0 0.00 0.00 0.00 77 1017.4
20260902060704 82 144 2.0 4.0 0.00 0.00 0.00 76 1017.4
20260902060202 82 167 2.0 4.0 0.00 0.00 0.00 76 1017.3
20260902055703 83 178 2.0 5.0 0.00 0.00 0.00 76 1017.3
20260902055202 83 184 2.0 5.0 0.00 0.00 0.00 75 1017.3
20260902054701 83 0 2.0 5.0 0.00 0.00 0.00 75 1017.3
20260902054202 83 193 1.0 4.0 0.00 0.00 0.00 74 1017.4
20260902053701 83 184 2.0 4.0 0.00 0.00 0.00 73 1017.3
20260902053202 83 185 2.0 6.0 0.00 0.00 0.00 73 1017.3
20260902052701 83 161 3.0 6.0 0.00 0.00 0.00 73 1017.2
20260902052651 83 167 3.0 8.0 0.00 0.00 0.00 73 1017.2
20260902051701 84 153 4.0 8.0 0.00 0.00 0.00 73 1017.2
20260902051201 84 129 4.0 7.0 0.00 0.00 0.00 73 1017.3
20260902051144 83 131 4.0 8.0 0.00 0.00 0.00 73 1017.2
20260902050201 83 136 4.0 8.0 0.00 0.00 0.00 73 1017.2
20260902045703 83 177 3.0 6.0 0.00 0.00 0.00 73 1017.1
20260902045201 83 145 3.0 7.0 0.00 0.00 0.00 73 1017.2
20260902044701 83 136 2.0 7.0 0.00 0.00 0.00 73 1017.3
20260902044201 83 148 1.0 5.0 0.00 0.00 0.00 73 1017.2
20260902043701 83 138 1.0 4.0 0.00 0.00 0.00 72 1017.2
20260902043201 83 142 1.0 4.0 0.00 0.00 0.00 72 1017.2
20260902042701 83 142 2.0 4.0 0.00 0.00 0.00 72 1017.2
20260902042201 83 142 2.0 4.0 0.00 0.00 0.00 71 1017.1
20260902041701 83 134 2.0 4.0 0.00 0.00 0.00 71 1017.2
20260902041201 83 144 2.0 4.0 0.00 0.00 0.00 71 1017.1
20260902040701 84 134 2.0 4.0 0.00 0.00 0.00 71 1017.1
20260902040422 84 134 1.0 4.0 0.00 0.00 0.00 70 1017.0
20260902035701 84 0 0.0 2.0 0.00 0.00 0.00 69 1017.0
20260902035202 85 135 1.0 3.0 0.00 0.00 0.00 69 1017.0
20260902034700 85 135 1.0 3.0 0.00 0.00 0.00 68 1017.0
20260902034201 85 134 2.0 3.0 0.00 0.00 0.00 68 1016.9
20260902033932 85 135 2.0 4.0 0.00 0.00 0.00 67 1016.9
20260902033201 85 135 2.0 4.0 0.00 0.00 0.00 67 1016.8
20260902032700 85 135 2.0 5.0 0.00 0.00 0.00 66 1016.7
20260902032155 86 135 2.0 5.0 0.00 0.00 0.00 66 1016.7
20260902032145 86 136 3.0 5.0 0.00 0.00 0.00 65 1016.6
20260902031632 86 130 3.0 7.0 0.00 0.00 0.00 65 1016.6
20260902030638 86 135 3.0 7.0 0.00 0.00 0.00 65 1016.3
20260902030402 86 144 3.0 7.0 0.00 0.00 0.00 65 1016.2
20260902030120 86 159 3.0 8.0 0.00 0.00 0.00 65 1016.0
20260902025356 86 140 3.0 8.0 0.00 0.00 0.00 65 1016.0
20260902024635 85 137 2.0 4.0 0.00 0.00 0.00 65 1015.9
20260902024135 85 131 2.0 4.0 0.00 0.00 0.00 65 1015.8
20260902023636 85 121 2.0 4.0 0.00 0.00 0.00 65 1015.8
20260902023135 85 121 2.0 4.0 0.00 0.00 0.00 64 1015.6
20260902022634 86 115 2.0 4.0 0.00 0.00 0.00 64 1015.6
20260902022134 86 115 3.0 4.0 0.00 0.00 0.00 64 1015.5
20260902021635 86 113 3.0 4.0 0.00 0.00 0.00 64 1015.4
20260902021135 86 126 3.0 6.0 0.00 0.00 0.00 63 1015.4
20260902020635 86 126 2.0 6.0 0.00 0.00 0.00 63 1015.3
20260902020358 86 109 2.0 3.0 0.00 0.00 0.00 63 1015.2
20260902015632 86 107 2.0 3.0 0.00 0.00 0.00 63 1015.2
20260902015356 87 105 1.0 4.0 0.00 0.00 0.00 62 1015.2
20260902014630 87 105 2.0 4.0 0.00 0.00 0.00 61 1015.1
20260902014136 88 105 2.0 4.0 0.00 0.00 0.00 61 1015.1
20260902013635 88 105 2.0 4.0 0.00 0.00 0.00 60 1015.0
20260902013134 88 105 3.0 4.0 0.00 0.00 0.00 60 1015.0
20260902012633 88 103 3.0 6.0 0.00 0.00 0.00 60 1014.9
20260902012131 88 101 2.0 6.0 0.00 0.00 0.00 60 1014.9
20260902011853 89 103 2.0 4.0 0.00 0.00 0.00 59 1014.8
20260902011129 89 103 2.0 4.0 0.00 0.00 0.00 59 1014.7
20260902010627 90 103 2.0 4.0 0.00 0.00 0.00 59 1014.7
20260902010127 90 103 2.0 4.0 0.00 0.00 0.00 58 1014.7
20260902005626 90 106 2.0 4.0 0.00 0.00 0.00 58 1014.7
20260902005126 91 108 3.0 6.0 0.00 0.00 0.00 57 1014.9
20260902004856 91 105 2.0 6.0 0.00 0.00 0.00 56 1014.9
20260902004353 92 101 2.0 7.0 0.00 0.00 0.00 56 1014.9
20260902003626 92 92 3.0 7.0 0.00 0.00 0.00 55 1015.0
20260902003126 93 99 3.0 9.0 0.00 0.00 0.00 54 1015.0
20260902003121 93 95 4.0 10.0 0.00 0.00 0.00 54 1015.1
20260902002126 93 76 5.0 10.0 0.00 0.00 0.00 53 1015.0
20260902001627 93 107 5.0 10.0 0.00 0.00 0.00 53 1015.1